[[{"header":{"parameterUnit":"m.s-1","parameterCategory":1,"la1":30.2991,"la2":30.254,"lo1":-89.0895,"lo2":-89.0444,"dx":0.0017,"dy":0.0017,"nx":28,"ny":28,"refTime":"2023-01-20T09:00:00:Z","depth":0,"parameterNumber":2,"parameterNumberName":"U-component_of_WINDS"},"data":[0,0,0,0,0,0,0,0,0,0,0,0,0,0,0,0,0,0,0,0,0,0,0,0,0,0,0,0,0,0,0,0,0,0,0,0,0,0,0,0,0,0,0,0,0,0,0,0,0,0,0,0,0,0,0,0,0,0,-2.0055,-2.0056,0,-2.0102,-2.0103,-2.0103,-2.0057,-2.0056,-2.0054,-2.0052,-2.0102,-2.0105,-2.0108,0,0,0,0,0,0,0,0,0,0,0,0,0,-1.9927,-1.9929,-2.0055,-2.0056,-2.0056,-2.0102,-2.0103,-2.0103,-2.0058,-2.0056,-2.0053,-2.0051,-2.0101,-2.0105,-2.0108,0,0,0,0,0,0,0,0,0,0,0,0,0,-1.9979,-1.993,-2.0055,-2.0039,-2.0038,-2.0102,-2.0103,-2.0103,-2.0058,-2.0055,-2.0053,-2.005,-2.01,-2.0104,-2.0109,-2.0191,0,0,-2.0123,-2.0125,0,0,0,0,0,0,0,0,-1.9976,-1.9984,-2.0041,-2.004,-2.0039,-2.0071,-2.0076,-2.0133,-2.0059,-2.0051,-2.0052,-2.0049,-2.0094,-2.0099,-2.0114,-2.0194,-2.0196,-2.0123,-2.0126,-2.0128,-2.0129,0,0,0,0,0,0,0,-1.9973,-1.9982,-2.0074,-2.0042,-2.0041,-2.003,-2.0034,-2.0086,-2.0087,-2.0051,-2.0048,-2.0054,-2.0093,-2.0109,-2.0115,-2.0196,-2.0123,-2.0127,-2.013,-2.0131,-2.0347,-2.035,0,0,0,0,0,0,-1.9971,-1.9979,-2.0072,-2.0075,-2.0,-2.0034,-2.0039,-2.0064,-2.0086,-2.0087,-2.0056,-2.0052,-2.0103,-2.0109,-2.0116,-2.0215,-2.0128,-2.0132,-2.0134,-2.0344,-2.0348,-2.0351,0,0,0,0,0,0,-1.9968,-1.9979,-2.007,-2.0026,-2.0037,-2.0039,-2.0067,-2.0066,-2.0082,-2.009,-2.009,-2.0073,-2.0101,-2.011,-2.0173,-2.0216,-2.0134,-2.0138,-2.034,-2.0345,-2.0349,-2.0414,0,0,0,0,0,0,-1.9965,-1.9979,-2.001,-2.0027,-2.0039,-2.0126,-2.007,-2.0069,-2.009,-2.0085,-2.0106,-2.0107,-2.01,-2.0166,-2.0177,-2.0221,-2.0142,-2.0337,-2.0343,-2.0348,-2.0408,-2.042,-2.043,0,0,0,0,0,-1.996,-2.0026,-2.0012,-2.0023,-2.0078,-2.0129,-2.0136,-2.0126,-2.0094,-2.0125,-2.013,-2.0106,-2.0209,-2.0173,-2.0185,-2.0231,-2.0334,-2.0341,-2.0347,-2.0403,-2.0418,-2.043,0,0,0,0,0,0,-2.0015,-2.0028,-2.0012,-2.0086,-2.0107,-2.0121,-2.0161,-2.0142,-2.0172,-2.0166,-2.0152,-2.0158,-2.0225,-2.0234,-2.0193,-2.0312,-2.0266,-2.0276,-2.0304,-2.0319,-2.033,-2.0327,-2.0145,0,0,0,0,0,-2.0035,-2.0075,-2.0084,-2.0149,-2.016,-2.0158,-2.018,-2.017,-2.0191,-2.02,-2.021,-2.0231,-2.0269,-2.0294,-2.0328,-2.0408,-2.0413,-2.0445,-2.0456,-2.0466,-2.0475,-2.0518,-2.0534,-2.0373,-2.0373,-2.0373,0,0,-2.0079,-2.0091,-2.0117,-2.016,-2.0175,-2.0216,-2.0166,-2.0212,-2.0243,-2.0207,-2.0268,-2.0275,-2.0299,-2.0371,-2.0403,-2.038,-2.052,-2.0474,-2.0482,-2.0486,-2.0527,-2.0542,-2.0556,-2.0378,-2.0377,-2.0376,0,0,-2.0179,-2.0191,-2.0247,-2.0262,-2.0285,-2.0284,-2.0297,-2.0314,-2.0318,-2.0378,-2.0352,-2.0389,-2.0453,-2.0471,-2.0488,-2.0595,-2.0574,-2.0606,-2.0666,-2.0709,-2.0721,-2.0732,-2.0772,-2.0786,-2.0615,-2.0615,-2.0615,0,-2.023,-2.0292,-2.0278,-2.0326,-2.0346,-2.0314,-2.0371,-2.0386,-2.042,-2.0435,-2.0408,-2.0489,-2.0502,-2.0578,-2.0604,-2.0619,-2.0634,-2.0605,-2.072,-2.0732,-2.0742,-2.0779,-2.0794,-2.0619,-2.0618,-2.0618,-2.0618,0,-2.0354,-2.0397,-2.0439,-2.0471,-2.0496,-2.0548,-2.0543,-2.0569,-2.0557,-2.0559,-2.0621,-2.0635,-2.0673,-2.0689,-2.0678,-2.0765,-2.075,-2.0722,-2.0676,-2.0761,-2.0796,-2.081,-2.0624,-2.0623,-2.0622,-2.0621,0,0,-2.0492,-2.0516,-2.0532,-2.0546,-2.0568,-2.0602,-2.0652,-2.0688,-2.0712,-2.0735,-2.0778,-2.0833,-2.0807,-2.0827,-2.0817,-2.0855,-2.094,-2.0822,-2.0823,-2.0845,-2.1037,-2.1059,-2.1076,-2.0925,-2.0927,-2.093,-2.1036,0,-2.0595,-2.0682,-2.0671,-2.0756,-2.0796,-2.0765,-2.0809,-2.0828,-2.083,-2.0865,-2.0867,-2.0907,-2.087,-2.0882,-2.0917,-2.0922,-2.0978,-2.0914,-2.0966,-2.0968,-2.0963,-2.1094,-2.1118,-2.1217,-2.1049,-2.1051,-2.1053,0,-2.0726,-2.0755,-2.0843,-2.0859,-2.0875,-2.0915,-2.0948,-2.0981,-2.1001,-2.1,-2.1022,-2.1006,-2.1057,-2.1008,-2.1079,-2.1035,-2.1056,-2.1061,-2.1065,-2.1071,-2.1017,-2.1106,-2.1249,-2.1264,-2.1074,-2.1072,-2.1071,0,-2.0821,-2.088,-2.0941,-2.0954,-2.0974,-2.1003,-2.1013,-2.1031,-2.1053,-2.1081,-2.1096,-2.1129,-2.1148,-2.1175,-2.1168,-2.1133,-2.1241,-2.1191,-2.1243,-2.1243,-2.1269,-2.1268,-2.1419,-2.1279,-2.1279,-2.1278,-2.1278,0,-2.0938,-2.0994,-2.0984,-2.1022,-2.1083,-2.1069,-2.1131,-2.1136,-2.1152,-2.1191,-2.1166,-2.1203,-2.1191,-2.1227,-2.1222,-2.1282,-2.129,-2.1292,-2.129,-2.1295,-2.1295,-2.131,-2.1304,-2.1282,-2.1281,-2.1281,-2.128,0,-2.1055,-2.105,-2.1115,-2.1128,-2.1132,-2.1178,-2.1189,-2.1225,-2.1224,-2.1274,-2.1284,-2.1284,-2.1326,-2.1321,-2.1367,-2.1363,-2.1439,-2.1428,-2.1432,-2.1431,-2.1483,-2.1479,-2.1651,-2.1673,-2.1516,-2.1518,-2.1519,0,-2.1131,-2.1173,-2.119,-2.1214,-2.1226,-2.1265,-2.1287,-2.1275,-2.1299,-2.1326,-2.1359,-2.1397,-2.1428,-2.1496,-2.15,-2.1536,-2.1526,-2.1584,-2.1532,-2.1536,-2.153,-2.1528,-2.1533,-2.1595,-2.1597,-2.1599,-2.16,0,-2.1267,-2.1262,-2.1296,-2.1329,-2.1356,-2.1381,-2.1404,-2.1425,-2.1415,-2.1444,-2.1486,-2.1509,-2.1556,-2.1596,-2.1629,-2.1639,-2.1619,-2.1616,-2.163,-2.1637,-2.1638,-2.164,-2.1463,-2.1612,-2.1611,-2.161,-2.161,-2.1609,-2.1367,-2.1403,-2.1422,-2.146,-2.1475,-2.1497,-2.1531,-2.1535,-2.1569,-2.1607,-2.1597,-2.1644,-2.1663,-2.1706,-2.1719,-2.1757,-2.1736,-2.1756,-2.1761,-2.1767,-2.1774,-2.163,-2.1762,-2.1762,-2.1762,-2.1761,-2.1761,0,-2.1504,-2.1513,-2.1548,-2.1581,-2.1611,-2.1587,-2.1611,-2.1638,-2.168,-2.1699,-2.173,-2.1778,-2.1816,-2.1823,-2.1859,-2.1888,-2.1879,-2.1898,-2.1897,-2.19,-2.179,-2.1775,-2.1904,-2.1904,-2.1904,-2.1904,-2.1904,-2.1904,-2.1578,-2.1639,-2.1637,-2.1705,-2.1714,-2.176,-2.1776,-2.1796,-2.1811,-2.1866,-2.1898,-2.1901,-2.1916,-2.1953,-2.1987,-2.1988,-2.2003,-2.2026,-2.2024,-2.1921,-2.1907,-2.1894,-2.188,-2.2029,-2.2029,-2.213,-2.2131,-2.2132]},{"header":{"parameterUnit":"m.s-1","parameterCategory":1,"la1":30.2991,"la2":30.254,"lo1":-89.0895,"lo2":-89.0444,"dx":0.0017,"dy":0.0017,"nx":28,"ny":28,"refTime":"2023-01-20T09:00:00:Z","depth":0,"parameterNumber":3,"parameterNumberName":"V-component_of_WINDS"},"data":[0,0,0,0,0,0,0,0,0,0,0,0,0,0,0,0,0,0,0,0,0,0,0,0,0,0,0,0,0,0,0,0,0,0,0,0,0,0,0,0,0,0,0,0,0,0,0,0,0,0,0,0,0,0,0,0,0,0,-4.6178,-4.6178,0,-4.623,-4.6231,-4.6232,-4.6179,-4.6177,-4.6175,-4.6173,-4.6223,-4.6226,-4.6229,0,0,0,0,0,0,0,0,0,0,0,0,0,-4.6027,-4.603,-4.6178,-4.6178,-4.6179,-4.623,-4.6231,-4.6232,-4.6179,-4.6177,-4.6174,-4.6172,-4.6222,-4.6226,-4.623,0,0,0,0,0,0,0,0,0,0,0,0,0,-4.6087,-4.6031,-4.6177,-4.6159,-4.6158,-4.623,-4.6231,-4.6232,-4.618,-4.6177,-4.6174,-4.6171,-4.6221,-4.6225,-4.623,-4.6322,0,0,-4.6245,-4.6247,0,0,0,0,0,0,0,0,-4.6084,-4.6093,-4.6161,-4.616,-4.6159,-4.6195,-4.6196,-4.6262,-4.6181,-4.6171,-4.6173,-4.6169,-4.6216,-4.6221,-4.6238,-4.6324,-4.6327,-4.6246,-4.6249,-4.6251,-4.6252,0,0,0,0,0,0,0,-4.608,-4.609,-4.6198,-4.6162,-4.6161,-4.6147,-4.6152,-4.6209,-4.621,-4.6172,-4.6168,-4.6176,-4.6215,-4.6233,-4.6238,-4.6327,-4.6245,-4.625,-4.6253,-4.6255,-4.6492,-4.6495,0,0,0,0,0,0,-4.6078,-4.6087,-4.6197,-4.62,-4.6113,-4.6152,-4.6158,-4.6187,-4.6209,-4.621,-4.6178,-4.6173,-4.6226,-4.6233,-4.624,-4.6349,-4.6251,-4.6255,-4.6258,-4.6489,-4.6493,-4.6496,0,0,0,0,0,0,-4.6075,-4.6089,-4.6195,-4.6143,-4.6155,-4.6158,-4.6191,-4.6189,-4.6207,-4.6214,-4.6214,-4.6197,-4.6224,-4.6233,-4.6302,-4.635,-4.6257,-4.6262,-4.6485,-4.649,-4.6495,-4.6569,0,0,0,0,0,0,-4.6071,-4.6088,-4.6124,-4.6144,-4.6158,-4.6258,-4.6194,-4.6193,-4.6217,-4.621,-4.6232,-4.6232,-4.6222,-4.6295,-4.6307,-4.6355,-4.6266,-4.648,-4.6487,-4.6493,-4.6562,-4.6576,-4.6588,0,0,0,0,0,-4.6066,-4.6142,-4.6126,-4.6139,-4.6203,-4.6261,-4.6268,-4.6257,-4.6221,-4.6256,-4.626,-4.6231,-4.6343,-4.6303,-4.6316,-4.6366,-4.6477,-4.6485,-4.6493,-4.6557,-4.6573,-4.6588,0,0,0,0,0,0,-4.6126,-4.6144,-4.6127,-4.6211,-4.6235,-4.6252,-4.6296,-4.6275,-4.6308,-4.6301,-4.6284,-4.6289,-4.6363,-4.6371,-4.6326,-4.6456,-4.6404,-4.6415,-4.6448,-4.6464,-4.6477,-4.6474,-4.627,0,0,0,0,0,-4.6149,-4.6195,-4.6208,-4.6282,-4.6294,-4.6294,-4.6318,-4.6307,-4.633,-4.6339,-4.6349,-4.6371,-4.6411,-4.6438,-4.6475,-4.6563,-4.6567,-4.6604,-4.6616,-4.6627,-4.6636,-4.6684,-4.67,-4.6521,-4.6521,-4.6521,0,0,-4.6197,-4.6213,-4.6243,-4.6294,-4.6311,-4.6358,-4.6302,-4.6354,-4.6389,-4.6347,-4.6414,-4.6421,-4.6445,-4.6524,-4.6559,-4.6533,-4.6687,-4.6637,-4.6645,-4.6649,-4.6693,-4.671,-4.6725,-4.6527,-4.6526,-4.6525,0,0,-4.6309,-4.6326,-4.6389,-4.6408,-4.6435,-4.6434,-4.6449,-4.6469,-4.6473,-4.6539,-4.6509,-4.6549,-4.6618,-4.6637,-4.6655,-4.6774,-4.6749,-4.6786,-4.6853,-4.69,-4.6914,-4.6926,-4.6969,-4.6985,-4.6796,-4.6796,-4.6796,0,-4.6365,-4.6437,-4.6424,-4.6479,-4.6502,-4.6468,-4.6531,-4.6549,-4.6586,-4.6602,-4.6573,-4.666,-4.6673,-4.6756,-4.6786,-4.6801,-4.6818,-4.6785,-4.6913,-4.6925,-4.6937,-4.6977,-4.6994,-4.68,-4.68,-4.6799,-4.6799,0,-4.6505,-4.6555,-4.6602,-4.6641,-4.667,-4.6728,-4.6723,-4.6753,-4.674,-4.6741,-4.6809,-4.6824,-4.6864,-4.6883,-4.6869,-4.6964,-4.6947,-4.6916,-4.6863,-4.6958,-4.6996,-4.7012,-4.6807,-4.6805,-4.6804,-4.6803,0,0,-4.6657,-4.6688,-4.6706,-4.6723,-4.675,-4.6788,-4.6845,-4.6885,-4.6911,-4.6937,-4.6984,-4.7044,-4.7015,-4.7036,-4.7024,-4.7065,-4.7159,-4.7028,-4.7028,-4.7052,-4.7264,-4.7289,-4.7307,-4.7141,-4.7144,-4.7147,-4.7262,0,-4.6771,-4.6872,-4.6862,-4.6957,-4.7003,-4.697,-4.7019,-4.704,-4.7043,-4.7081,-4.7083,-4.7126,-4.7084,-4.7097,-4.7135,-4.7139,-4.7201,-4.713,-4.7185,-4.7187,-4.7181,-4.7327,-4.7353,-4.7461,-4.7277,-4.728,-4.7281,0,-4.6917,-4.6951,-4.7051,-4.7072,-4.7091,-4.7135,-4.7172,-4.7209,-4.7232,-4.723,-4.7254,-4.7235,-4.7291,-4.7237,-4.7313,-4.7266,-4.7287,-4.7292,-4.7295,-4.7301,-4.7241,-4.7337,-4.7496,-4.7512,-4.7305,-4.7303,-4.7301,0,-4.7019,-4.7089,-4.7159,-4.7174,-4.7199,-4.7232,-4.7243,-4.7263,-4.7288,-4.7319,-4.7335,-4.7372,-4.7392,-4.742,-4.7411,-4.7372,-4.7489,-4.7434,-4.749,-4.749,-4.7517,-4.7515,-4.7682,-4.7529,-4.7529,-4.7528,-4.7528,0,-4.7148,-4.7211,-4.7205,-4.7248,-4.7317,-4.7304,-4.7372,-4.7379,-4.7397,-4.744,-4.7412,-4.7453,-4.7438,-4.7477,-4.747,-4.7534,-4.7543,-4.7544,-4.7541,-4.7547,-4.7547,-4.7561,-4.7554,-4.7533,-4.7532,-4.7531,-4.753,0,-4.7274,-4.7273,-4.7346,-4.7365,-4.7371,-4.7421,-4.7436,-4.7475,-4.7475,-4.753,-4.7542,-4.7542,-4.7586,-4.758,-4.7629,-4.7624,-4.7705,-4.7693,-4.7698,-4.7696,-4.7752,-4.7747,-4.7934,-4.7958,-4.7789,-4.779,-4.7792,0,-4.7357,-4.7405,-4.7429,-4.7457,-4.7471,-4.7515,-4.7541,-4.7529,-4.7557,-4.7587,-4.7623,-4.7665,-4.7698,-4.7771,-4.7774,-4.7811,-4.78,-4.7863,-4.7806,-4.781,-4.7802,-4.78,-4.7805,-4.7875,-4.7877,-4.7879,-4.788,0,-4.7505,-4.7502,-4.7541,-4.758,-4.7612,-4.7642,-4.7668,-4.7692,-4.7682,-4.7715,-4.7761,-4.7787,-4.7837,-4.788,-4.7915,-4.7925,-4.7901,-4.7898,-4.7913,-4.792,-4.7921,-4.7922,-4.773,-4.7894,-4.7893,-4.7892,-4.7891,-4.789,-4.7613,-4.7654,-4.7678,-4.7722,-4.7741,-4.7767,-4.7805,-4.7811,-4.785,-4.7891,-4.7881,-4.7933,-4.7954,-4.7999,-4.8013,-4.8052,-4.8029,-4.805,-4.8056,-4.8062,-4.8069,-4.7914,-4.8058,-4.8058,-4.8057,-4.8057,-4.8057,0,-4.776,-4.7773,-4.7814,-4.7854,-4.7888,-4.7864,-4.7892,-4.7922,-4.7969,-4.7991,-4.8025,-4.8078,-4.8118,-4.8125,-4.8164,-4.8194,-4.8184,-4.8205,-4.8203,-4.8206,-4.8087,-4.8071,-4.8212,-4.8212,-4.8212,-4.8212,-4.8212,-4.8212,-4.784,-4.7909,-4.7909,-4.7987,-4.7999,-4.8051,-4.807,-4.8093,-4.811,-4.8171,-4.8206,-4.821,-4.8226,-4.8265,-4.8301,-4.8302,-4.8318,-4.8343,-4.834,-4.8229,-4.8214,-4.8199,-4.8184,-4.8346,-4.8346,-4.8455,-4.8456,-4.8457]}]]